Location: Bli��� Lhota
(48.7570°N, 14.0120°E)
Time: 05:38:07
(UTC+00:00)

CZ-2C R/B - Pass Details

Date: 18 September 2020
Orbit: 785 x 870 km, 98.2° (Epoch: 29 October)

Event Time Altitude Azimuth Distance (km) Brightness Sun altitude
Rises 17:35:51 0° 25° (NNE) 3,415 5.7 -5.1°
Reaches altitude 10° 17:38:50 10° 42° (NE) 2,488 4.8 -5.6°
Maximum altitude 17:42:56 21° 90° (E) 1,845 3.9 -6.3°
Drops below altitude 10° 17:47:03 10° 138° (SE) 2,503 4.7 -6.9°
Sets 17:50:03 0° 154° (SSE) 3,441 5.5 -7.4°
